#timestamp,LO_Frequency,Hit,StdDev 
1537531215.5,286046994.4,P
1537531235.4,286046989.2,P
1537531255.2,286046985.9,P
1537531275.0,286046984.1,Y
1537531275.9,286046984.1,P
1537531295.8,286046989.1,N
1537531315.6,286046984.3,P
1537531335.5,286046981.6,Y
1537531355.3,286046985.7,P
1537531375.1,286046981.9,P
1537531395.9,286046976.5,P
1537531415.7,286046971.3,Y
1537531435.5,286046980.7,P
1537531455.4,286046977.3,P
1537531475.2,286046975.3,P
1537531495.1,286046971.7,Y
1537531496.0,286046971.7,P
1537531515.8,286046988.8,P
1537531535.6,286046983.7,N
1537531555.5,286046981.4,N
1537531575.3,286046975.9,Y
1537531595.2,286046988.6,P
1537531615.9,286046987.7,P
1537531635.7,286046984.8,P
1537531655.6,286046976.3,Y
1537531675.4,286046983.8,P
1537531695.2,286046979.5,P
1537531715.1,286046973.0,P
1537531716.0,286046973.0,Y
1537531735.8,286046989.3,P
1537531755.7,286046986.5,P
1537531775.5,286046985.0,P
1537531795.3,286046980.7,Y
1537531815.2,286046994.2,P
1537531835.0,286046992.2,N
1537531835.9,286046992.2,N
1537531855.8,286046991.1,N
1537531875.6,286046987.1,Y
1537531895.4,286046994.3,P
1537531915.3,286046992.4,P
1537531935.1,286046991.8,P
1537531955.9,286046990.4,Y
1537531975.7,286046996.1,P
1537531995.5,286046996.7,N
1537532015.4,286046996.1,N
1537532035.2,286046992.0,Y
1537532055.0,286046996.0,P
1537532055.9,286046996.0,P
1537532075.8,286046992.7,P
1537532095.6,286046988.9,Y
1537532115.5,286046992.3,P
1537532135.3,286046989.0,P
1537532155.1,286046991.2,P
1537532175.9,286046989.9,Y
1537532195.7,286047000.8,P
1537532215.6,286046998.8,N
1537532235.4,286046999.5,N
1537532255.2,286046994.6,N
1537532275.1,286046993.0,N
1537532276.0,286046993.0,N
1537532295.8,286046991.0,N
1537532315.6,286046992.8,N
1537532335.5,286046994.5,N
1537532355.3,286046993.5,N
1537532375.1,286046991.8,N
1537532395.9,286046988.5,Y
1537532415.7,286046995.1,P
1537532435.6,286046997.4,P
1537532455.4,286046996.6,N
1537532475.2,286046996.5,Y
1537532495.1,286047005.5,P
1537532496.0,286047005.5,N
1537532515.8,286047008.1,N
1537532535.7,286047004.6,N
1537532555.5,286047008.7,N
1537532575.3,286047004.8,N
1537532595.2,286047007.5,N
1537532615.0,286047008.7,N
1537532615.9,286047008.7,N
1537532635.7,286047010.6,N
1537532655.6,286047013.8,Y
1537532675.4,286047004.0,P
1537532695.3,286047002.8,N
1537532715.1,286047001.0,N
1537532716.0,286047001.0,N
1537532735.8,286047003.1,N
1537532755.7,286047007.0,Y
1537532775.5,286047001.4,P
1537532795.4,286047002.4,N
1537532815.2,286047000.4,N
1537532835.0,286047003.7,Y
1537532835.9,286047003.7,P
1537532855.8,286047004.0,P
1537532875.6,286047007.7,P
1537532895.4,286047013.4,Y
1537532915.3,286047010.7,P
1537532935.1,286047012.0,P
1537532955.9,286047012.9,P
1537532975.7,286047014.7,Y
1537532995.5,286047007.6,P
1537533015.4,286047010.0,P
1537533035.2,286047014.8,P
1537533055.1,286047019.0,Y
1537533056.0,286047019.0,P
1537533075.8,286047015.5,P
1537533095.6,286047018.4,P
1537533115.5,286047018.3,Y
1537533135.3,286047004.1,P
1537533155.1,286047006.5,N
1537533175.9,286047010.4,N
1537533195.7,286047009.8,N
1537533215.6,286047011.0,N
1537533235.4,286047018.8,Y
1537533255.2,286047012.3,P
1537533275.1,286047014.7,P
1537533276.0,286047014.7,P
1537533295.8,286047018.6,Y
1537533315.6,286047006.4,P
1537533335.5,286047012.3,P
1537533355.3,286047013.2,P
1537533375.2,286047014.2,Y
1537533395.9,286047004.9,P
1537533415.7,286047009.1,N
1537533435.6,286047012.3,P
1537533455.4,286047013.9,Y
1537533475.3,286047005.1,P
1537533495.1,286047008.8,P
1537533496.0,286047008.8,P
1537533515.8,286047010.0,Y
1537533535.7,286047004.6,P
1537533555.5,286047006.7,P
1537533575.3,286047008.0,P
1537533595.2,286047009.8,Y
1537533615.0,286047004.8,P
1537533615.9,286047004.8,P
1537533635.8,286047006.8,P
1537533655.6,286047008.7,Y
1537533675.4,286047003.5,P
1537533695.3,286047007.1,P
1537533715.1,286047009.3,P
1537533735.9,286047013.1,Y
1537533755.7,286047010.8,P
1537533775.5,286047009.0,P
1537533795.4,286047006.4,P
1537533815.2,286047007.8,Y
1537533835.0,286047004.4,P
1537533835.9,286047004.4,N
1537533855.8,286047005.9,P
1537533875.6,286047008.4,Y
1537533895.5,286047007.1,P
1537533915.3,286047005.0,P
1537533935.1,286047006.8,P
1537533955.9,286047009.2,Y
1537533975.7,286047002.6,P
1537533995.5,286047002.1,N
1537534015.4,286047004.1,N
1537534035.2,286047003.1,N
1537534055.1,286047003.0,N
1537534056.0,286047003.0,N
1537534075.8,286047005.1,Y
1537534095.6,286047001.4,P
1537534115.5,286047001.3,N
1537534135.3,286047003.1,P
1537534155.2,286047003.2,Y
1537534175.9,286047003.1,P
1537534195.7,286047005.6,P
1537534215.6,286047004.8,P
1537534235.4,286047005.2,Y
1537534255.2,286047001.4,P
1537534275.1,286047005.8,P
1537534276.0,286047005.8,P
1537534295.8,286047005.2,N
1537534315.7,286047007.4,Y
1537534335.5,286047000.0,P
1537534355.3,286047002.0,N
1537534375.2,286047003.1,N
1537534395.0,286047005.8,Y
1537534395.9,286047005.8,P
1537534415.8,286047006.0,P
1537534435.6,286047006.6,P
1537534455.4,286047006.7,Y
1537534475.3,286047004.8,P
1537534495.1,286047003.7,P
1537534515.8,286047003.4,P
1537534535.7,286047005.3,Y
1537534555.5,286047000.5,P
1537534575.4,286047001.7,N
1537534595.2,286047005.3,P
1537534615.0,286047003.4,N
1537534615.9,286047003.4,N
1537534635.8,286047003.7,N
1537534655.6,286047005.1,Y
1537534675.5,286047002.3,P
1537534695.3,286047000.2,N
1537534715.1,286047002.8,N
1537534735.9,286047004.0,Y
1537534755.7,286047003.5,P
1537534775.6,286047004.2,P
1537534795.4,286047005.6,P
